This is the latest recevied weather packets stored in our database for station/object KD5HIA. If no packets are shown the sender has not sent any weather packets the latest 10 day(s).
| Time | Temp. | Humidity | Pressure | Rain* | Wind** | Luminosity | Snow |
|---|---|---|---|---|---|---|---|
| 1778062816 | 14.44° C | 76% | 1010.7 hPa | 0 mm | - | 0 W/m² | - |
| 1778062216 | 14.44° C | 75% | 1010.7 hPa | 0 mm | - | 0 W/m² | - |
| 1778061616 | 14.44° C | 75% | 1010.3 hPa | 0 mm | - | 0 W/m² | - |
| 1778061016 | 15° C | 74% | 1010 hPa | 0 mm | - | 0 W/m² | - |
| 1778060417 | 15.56° C | 74% | 1010.2 hPa | 0 mm | - | 0 W/m² | - |
| 1778059816 | 15.56° C | 74% | 1010.2 hPa | 0 mm | - | 0 W/m² | - |
| 1778059216 | 15.56° C | 75% | 1009.9 hPa | 0 mm | - | 0 W/m² | - |
| 1778058617 | 15.56° C | 75% | 1009.4 hPa | 0 mm | - | 0 W/m² | - |
| 1778058016 | 15.56° C | 74% | 1009.7 hPa | 0 mm | - | 0 W/m² | - |
| 1778057416 | 16.11° C | 73% | 1009.7 hPa | 0 mm | - | 0 W/m² | - |
| 1778056816 | 16.67° C | 73% | 1009.5 hPa | 0 mm | - | 0 W/m² | - |
| 1778056216 | 16.67° C | 73% | 1010.1 hPa | 0 mm | - | 0 W/m² | - |
| 1778055617 | 16.67° C | 72% | 1009.8 hPa | 0 mm | - | 0 W/m² | - |
| 1778055017 | 17.22° C | 72% | 1009.9 hPa | 0 mm | - | 0 W/m² | - |
| 1778054416 | 17.22° C | 72% | 1009.9 hPa | 0 mm | - | 0 W/m² | - |
| 1778053816 | 17.78° C | 71% | 1009.9 hPa | 0 mm | - | 0 W/m² | - |
| 1778053217 | 17.78° C | 71% | 1009.9 hPa | 0 mm | - | 0 W/m² | - |
| 1778052616 | 18.33° C | 71% | 1009.8 hPa | 0 mm | - | 0 W/m² | - |
| 1778052016 | 18.33° C | 71% | 1009.6 hPa | 0 mm | - | 0 W/m² | - |
| 1778051417 | 18.33° C | 70% | 1009.9 hPa | 0 mm | - | 0 W/m² | - |
| 1778050816 | 18.89° C | 70% | 1009.8 hPa | 0 mm | - | 0 W/m² | - |
| 1778050216 | 18.89° C | 69% | 1009.9 hPa | 0 mm | - | 0 W/m² | - |
| 1778049620 | 19.44° C | 68% | 1009.8 hPa | 0 mm | - | 0 W/m² | - |
| 1778049021 | 19.44° C | 67% | 1009.6 hPa | 0 mm | - | 0 W/m² | - |
| 1778048420 | 20° C | 65% | 1009.2 hPa | 0 mm | - | 0 W/m² | - |
* Rain latest hour (hover to see other rain measurements)
** Current wind speed in m/s (hover to see current wind gust speed)